C/2004 RG113 ( LINEAR )

Japanese version
Home page
Updated on August 9, 2005

---------------------------------------------------------------------

* Profile

Discovery Date September 6, 2004
Magnitude 19.2 mag
Discoverer Lincoln Laboratory Near-Earth Asteroid Research project

* Pictures

* Orbital Elements

Epoch 2005 Mar. 11.0 TT = JDT 2453440.5
T 2005 Mar. 3.72331 TT                                  MPC
q   1.9422806            (2000.0)            P               Q
z  +0.0014306      Peri.  125.31045     -0.68693893     -0.72454000
 +/-0.0000166      Node     8.77197     +0.48742927     -0.51671425
e   0.9972214      Incl.   21.61803     +0.53900614     -0.45612297
>From 91 observations 2004 Aug. 19-Dec. 16, mean residual 0".57.

* Finding Charts

* Magnitudes Graph

        m1 = 12.5 + 5 log d + 10.0 log r

---------------------------------------------------------------------

The orbital elements are published on M.P.E.C. 2004-Y10.
The charts are made with StellaNavigator Ver.2.0 for Windows (AstroArts / ASCII).
The magnitudes graphs are made with Comet for Windows.

---------------------------------------------------------------------

Copyright(C) Seiichi Yoshida (comet@aerith.net). All rights reserved.